STARLINK-1325 (45554 NORAD) Tracking and Keplerian Element Data

This shows tracking and keplerian element data for the satellite.

Feedback or suggestion? Click here.




ElementValue
Catalog45554
NameSTARLINK-1325
Epoch Orbit562
Epoch Day145.08334491
Epoch Year2020
RAAN244.9471
Inclination52.9981
Eccentricity0.0001
Argument of Perigee95.9104
Mean Anonmoly158.3537
Mean Motion15.62730708
Decay Rate0.00043669
L11 45554U 20025Z 20145.08334491 .00043669 00000-0 48059-3 0 9993
L22 45554 52.9981 244.9471 0001000 95.9104 158.3537 15.62730708 5623

Live tracking and technical data element details for STARLINK-1325 (NORAD 45554). STARLINK-1325 can be tracked NOW for your location showing map with azimuth and elevation plus other details from your city location.

Track the satellite on the map from your city or location and see movement details for azimuth, elevation, latitude, longitude, range, height, and movement on the map or in text.







IsCatalogInMostPopularTable: catalog: 45554, numindb: 6
Update: records affected: 1



GetName: 45554 STARLINK-1325

Hit Count: updated at: Tue, 26 May 2020 03:31:09 GMT